Kezdőlap
METAR-TAF:

METAR-TAF

Repülőterek :

Rochelle Municipal Airport (Koritz Field)

Rochelle, Illinois, Amerikai Egyesült Államok

földrajzi szélesség: 41-53-35N, földrajzi hosszúság: 089-04-42W, magasság: 238 m

Jelenlegi meteorológiai megfigyelések

A jelentés 14 perccel ezelõtt készült, 10:35 UTC
Szélcsend
Hőmérséklet -2°C
Páratartalom 100%
Légköri nyomás 1017 hPa
Látótávolság: 16.1 km
Derült ég

METAR: KRPJ 231035Z AUTO 00000KT 10SM CLR M02/M02 A3004 RMK AO2 T10161019

Idő: 05:49 (10:49 UTC)


TAF: hiányzik

Meteorológiai megfigyelések és előrejelzések több, mint 4000 repülőtéren (METAR és TAF jelentéseket).

A térképen piros és sárga pontok jelzik az elérhető meteorológiai állomásokat.

Mozgassa az egeret a pont fölött, hogy megjelenjen az állomás neve.

Azután kattintson az időjárási megfigyelések és előrejelzések megtekintéséhez.

A térkép megváltoztatása: kattintson a fekete keresztel jelölt zöld gombra ráközelítéshez, a vonallal jelölt zöld gombra távolításhoz, vagy a zöld nyilakra a szomszédos térképek eléréséhez.


METAR-TAF: